Location: Barletta
(41.3170°N, 16.2830°E)
Time: 02:46:29
(UTC+02:00)

ISS - Pass Details

Date: 17 May 2021
Orbit: 417 x 422 km, 51.6° (Epoch: 14 June)

Event Time Altitude Azimuth Distance (km) Brightness Sun altitude
Rises 03:43:04 0° 302° (WNW) 2,372 0.0 -17.5°
Reaches altitude 10° 03:45:12 10° 298° (WNW) 1,506 -1.1 -17.2°
Maximum altitude 03:48:30 55° 220° (SW) 510 -3.8 -16.8°
Drops below altitude 10° 03:51:49 10° 141° (SE) 1,499 -1.0 -16.3°
Sets 03:53:56 0° 137° (SE) 2,360 0.0 -16.1°
